Weather History for KGKJ - November, 2011

Change the Weather History Date:

Friday, November 11, 2011

  Actual Average Record
Temperature  
Mean Temperature 33 °F -  
Max Temperature 36 °F 49 °F 67 °F (1949)
Min Temperature 30 °F 33 °F 14 °F (1957)
Degree Days  
Heating Degree Days 32    
Moisture  
Dew Point 29 °F    
Average Humidity 89    
Maximum Humidity 100    
Minimum Humidity 67    
Precipitation  
Precipitation 0.11 in - - ()
Sea Level Pressure  
Sea Level Pressure 29.88 in    
Wind  
Wind Speed 9 mph (WSW)    
Max Wind Speed 15 mph    
Max Gust Speed 26 mph    
Visibility 4 miles    
Events Fog , Snow    
Averages and records for this station are not official NWS values.
T = Trace of Precipitation, MM = Missing Value Source: NWS Daily Summary

Daily Weather History Graph

Daily Weather History Graph

Search for Another Location

Airport or City:

Trip Planner

Search our weather history database for the weather conditions in past years. The results will help you decide how hot, cold, wet, or windy it might be!

Date:

Astronomy

Nov. 11, 2011 Rise Set
Actual Time 7:04 AM EST 5:04 PM EST
Civil Twilight 6:35 AM EST 5:34 PM EST
Nautical Twilight 6:01 AM EST 6:07 PM EST
Astronomical Twilight 5:29 AM EST 6:40 PM EST
Moon 5:31 PM EST (11/11) 7:52 AM EST (11/11)
Length of Visible Light 10h 58m
Length of Day
9h 59m
Full, 99% of the Moon is Illuminated
Nov 11
Full
Nov 18
Last Quarter
Nov 25
New
Dec 2
First Quarter
Dec 10
Full

Hourly Weather History & Observations

Time (EST) Temp. Windchill Dew Point Humidity Pressure Visibility Wind Dir Wind Speed Gust Speed Precip Events Conditions
12:53 AM 33.1 °F 25.5 °F 26.1 °F 75% 29.83 in 10.0 mi WSW 9.2 mph - 0.00 in   Overcast
1:07 AM 32.0 °F 22.5 °F 26.6 °F 80% 29.80 in 1.8 mi WSW 12.7 mph 19.6 mph 0.00 in Snow Light Snow
1:15 AM 30.2 °F 21.9 °F 28.4 °F 93% 29.80 in 0.8 mi WSW 9.2 mph 18.4 mph 0.00 in Snow Light Snow
1:23 AM 30.2 °F 22.6 °F 28.4 °F 93% 29.80 in 1.2 mi WSW 8.1 mph - 0.00 in Snow Light Snow
1:29 AM 30.2 °F 21.3 °F 28.4 °F 93% 29.80 in 1.0 mi WSW 10.4 mph - 0.00 in Snow Light Snow
1:38 AM 30.2 °F 21.9 °F 28.4 °F 93% 29.81 in 0.5 mi West 9.2 mph - 0.00 in Fog , Snow Snow
1:53 AM 30.9 °F 23.5 °F 28.9 °F 92% 29.83 in 0.5 mi WSW 8.1 mph - 0.00 in Fog , Snow Snow
2:11 AM 30.2 °F 21.9 °F 28.4 °F 93% 29.81 in 1.0 mi SW 9.2 mph - 0.00 in Snow Light Snow
2:22 AM 30.2 °F 20.8 °F 28.4 °F 93% 29.80 in 0.5 mi WSW 11.5 mph - 0.00 in Fog , Snow Snow
2:25 AM 30.2 °F 21.3 °F 28.4 °F 93% 29.81 in 0.2 mi WSW 10.4 mph - 0.00 in Fog , Snow Heavy Snow
2:53 AM 30.0 °F 21.1 °F 28.9 °F 96% 29.84 in 2.5 mi WSW 10.4 mph - 0.00 in Snow Light Snow
3:00 AM 30.2 °F 21.9 °F 28.4 °F 93% 29.80 in 6.0 mi WSW 9.2 mph - 0.00 in   Overcast
3:53 AM 30.0 °F 22.4 °F 28.0 °F 92% 29.83 in 7.0 mi WSW 8.1 mph - 0.01 in   Overcast
4:05 AM 30.2 °F 21.9 °F 28.4 °F 93% 29.80 in 1.8 mi WSW 9.2 mph - 0.00 in Snow Light Snow
4:21 AM 30.2 °F 23.4 °F 28.4 °F 93% 29.80 in 3.0 mi SW 6.9 mph - 0.00 in Snow Light Snow
4:53 AM 30.0 °F 22.4 °F 28.9 °F 96% 29.84 in 0.5 mi SW 8.1 mph - 0.00 in Fog , Snow Snow
5:05 AM 30.2 °F 22.6 °F 28.4 °F 93% 29.81 in 2.0 mi WSW 8.1 mph - 0.00 in Snow Light Snow
5:16 AM 30.2 °F 21.3 °F 28.4 °F 93% 29.81 in 4.0 mi WSW 10.4 mph - 0.00 in Snow Light Snow
5:21 AM 30.2 °F 21.3 °F 28.4 °F 93% 29.82 in 1.8 mi WSW 10.4 mph - 0.00 in Snow Light Snow
5:32 AM 30.2 °F 21.9 °F 28.4 °F 93% 29.82 in 0.5 mi WSW 9.2 mph - 0.00 in Fog , Snow Snow
5:41 AM 30.2 °F 24.3 °F 28.4 °F 93% 29.81 in 0.5 mi SW 5.8 mph - 0.00 in Fog , Snow Snow
5:53 AM 30.9 °F - 28.9 °F 92% 29.85 in 1.8 mi Calm Calm - 0.00 in Snow Light Snow
5:59 AM 30.2 °F 26.7 °F 30.2 °F 100% 29.82 in 2.0 mi SSW 3.5 mph - 0.00 in Snow Light Snow
6:06 AM 30.2 °F 26.7 °F 28.4 °F 93% 29.82 in 0.8 mi SW 3.5 mph - 0.00 in Snow Light Snow
6:16 AM 30.2 °F 25.4 °F 28.4 °F 93% 29.82 in 1.2 mi WSW 4.6 mph - 0.01 in Snow Light Snow
6:27 AM 30.2 °F 21.9 °F 28.4 °F 93% 29.82 in 0.5 mi SW 9.2 mph - 0.01 in Fog , Snow Snow
6:34 AM 30.2 °F 22.6 °F 28.4 °F 93% 29.82 in 0.2 mi SW 8.1 mph - 0.01 in Fog , Snow Heavy Snow
6:46 AM 30.2 °F 21.9 °F 30.2 °F 100% 29.83 in 0.8 mi WSW 9.2 mph - 0.01 in Snow Light Snow
7:00 AM 30.2 °F 23.4 °F 30.2 °F 100% 29.83 in 5.0 mi SW 6.9 mph - 0.00 in   Overcast
7:18 AM 30.2 °F 22.6 °F 30.2 °F 100% 29.83 in 5.0 mi WSW 8.1 mph - 0.01 in   Overcast
7:31 AM 32.0 °F 23.0 °F 30.2 °F 93% 29.84 in 0.8 mi WSW 11.5 mph - 0.01 in Snow Light Snow
7:44 AM 32.0 °F 24.2 °F 30.2 °F 93% 29.85 in 2.0 mi WSW 9.2 mph 23.0 mph 0.01 in Snow Light Snow
7:51 AM 32.0 °F 24.8 °F 30.2 °F 93% 29.85 in 8.0 mi WSW 8.1 mph - 0.01 in   Overcast
7:53 AM 32.0 °F 24.8 °F 30.0 °F 92% 29.89 in 8.0 mi WSW 8.1 mph - 0.01 in   Overcast
8:24 AM 32.0 °F 23.6 °F 30.2 °F 93% 29.86 in 2.5 mi West 10.4 mph - 0.01 in Snow Light Snow
8:33 AM 32.0 °F 24.2 °F 30.2 °F 93% 29.86 in 3.0 mi WSW 9.2 mph - 0.01 in Snow Light Snow
8:53 AM 33.1 °F 25.5 °F 30.0 °F 89% 29.91 in 9.0 mi West 9.2 mph - 0.03 in   Overcast
9:27 AM 33.8 °F 24.8 °F 30.2 °F 87% 29.88 in 10.0 mi WSW 12.7 mph - 0.03 in   Overcast
11:05 AM 33.8 °F 24.3 °F 30.2 °F 87% 29.90 in 0.8 mi West 13.8 mph 26.5 mph 0.02 in Snow Light Snow
11:09 AM 32.0 °F 23.6 °F 30.2 °F 93% 29.90 in 0.2 mi West 10.4 mph 26.5 mph 0.02 in Fog , Snow Heavy Snow
11:13 AM 33.8 °F 24.8 °F 30.2 °F 87% 29.89 in 0.5 mi West 12.7 mph 20.7 mph 0.02 in Fog , Snow Light Snow
11:16 AM 33.8 °F 25.8 °F 30.2 °F 87% 29.89 in 1.0 mi West 10.4 mph 20.7 mph 0.03 in Snow Light Snow
11:20 AM 33.8 °F 27.0 °F 30.2 °F 87% 29.89 in 3.0 mi West 8.1 mph 18.4 mph 0.03 in Snow Light Snow
11:31 AM 35.6 °F 29.2 °F 30.2 °F 81% 29.89 in 10.0 mi WNW 8.1 mph - 0.04 in   Mostly Cloudy
11:53 AM 36.0 °F 29.0 °F 30.9 °F 82% 29.93 in 10.0 mi SW 9.2 mph - 0.04 in   Scattered Clouds
12:23 PM 33.8 °F 25.8 °F 30.2 °F 87% 29.89 in 4.0 mi WSW 10.4 mph - 0.00 in Snow Light Snow
12:37 PM 33.8 °F 25.8 °F 32.0 °F 93% 29.90 in 2.5 mi WSW 10.4 mph 16.1 mph 0.00 in Snow Light Snow
12:49 PM 33.8 °F 24.3 °F 30.2 °F 87% 29.90 in 4.0 mi WSW 13.8 mph - 0.00 in Snow Light Snow
12:53 PM 34.0 °F 24.2 °F 30.9 °F 89% 29.94 in 7.0 mi WSW 15.0 mph - 0.00 in Snow Light Snow
1:06 PM 33.8 °F 24.8 °F 30.2 °F 87% 29.91 in 1.8 mi WSW 12.7 mph - 0.00 in Snow Light Snow
1:16 PM 33.8 °F 26.4 °F 30.2 °F 87% 29.91 in 0.5 mi WSW 9.2 mph - 0.01 in Fog , Snow Snow
1:23 PM 33.8 °F 25.8 °F 30.2 °F 87% 29.91 in 2.0 mi WSW 10.4 mph - 0.01 in Snow Light Snow
1:31 PM 33.8 °F 25.3 °F 30.2 °F 87% 29.91 in 4.0 mi WSW 11.5 mph - 0.01 in Snow Light Snow
1:39 PM 33.8 °F 26.4 °F 32.0 °F 93% 29.91 in 2.0 mi WSW 9.2 mph 19.6 mph 0.01 in Snow Light Snow
1:50 PM 33.8 °F 25.8 °F 32.0 °F 93% 29.91 in 6.0 mi WSW 10.4 mph - 0.01 in Snow Light Snow
1:53 PM 34.0 °F 25.5 °F 32.0 °F 92% 29.95 in 9.0 mi WSW 11.5 mph - 0.01 in   Overcast
2:48 PM 33.8 °F 24.3 °F 30.2 °F 87% 29.91 in 3.0 mi WSW 13.8 mph 25.3 mph 0.00 in Snow Light Snow
2:53 PM 34.0 °F 24.6 °F 30.9 °F 89% 29.95 in 1.8 mi West 13.8 mph 25.3 mph 0.00 in Snow Light Snow
3:00 PM 33.8 °F 24.3 °F 30.2 °F 87% 29.91 in 3.0 mi West 13.8 mph - 0.00 in Snow Light Snow
3:15 PM 33.8 °F 25.3 °F 30.2 °F 87% 29.92 in 2.5 mi West 11.5 mph 20.7 mph 0.00 in Snow Light Snow
3:22 PM 33.8 °F 27.7 °F 30.2 °F 87% 29.92 in 1.0 mi West 6.9 mph 19.6 mph 0.00 in Snow Light Snow
3:32 PM 33.8 °F 27.0 °F 30.2 °F 87% 29.92 in 3.0 mi West 8.1 mph - 0.00 in Snow Light Snow
3:53 PM 34.0 °F 28.0 °F 30.9 °F 89% 29.97 in 4.0 mi West 6.9 mph - 0.00 in Snow Light Snow
4:02 PM 33.8 °F 27.7 °F 30.2 °F 87% 29.93 in 4.0 mi West 6.9 mph - 0.00 in Snow Light Snow
4:24 PM 33.8 °F 29.6 °F 32.0 °F 93% 29.93 in 9.0 mi WSW 4.6 mph - 0.00 in   Overcast
4:53 PM 34.0 °F 28.8 °F 32.0 °F 92% 29.97 in 9.0 mi SW 5.8 mph - 0.01 in   Overcast
5:53 PM 35.1 °F 31.0 °F 28.9 °F 78% 29.98 in 10.0 mi WSW 4.6 mph - N/A   Overcast
6:53 PM 35.1 °F 31.0 °F 28.0 °F 76% 29.99 in 10.0 mi SW 4.6 mph - N/A   Overcast
7:53 PM 35.1 °F 31.0 °F 26.1 °F 70% 29.99 in 10.0 mi SW 4.6 mph - N/A   Mostly Cloudy
8:53 PM 34.0 °F 27.2 °F 24.1 °F 67% 30.00 in 10.0 mi SW 8.1 mph - N/A   Clear
9:53 PM 33.1 °F 27.7 °F 24.1 °F 70% 29.99 in 10.0 mi South 5.8 mph - N/A   Clear
10:53 PM 32.0 °F 25.6 °F 24.1 °F 73% 29.99 in 10.0 mi South 6.9 mph - N/A   Clear
11:53 PM 33.1 °F 27.7 °F 24.1 °F 70% 29.99 in 10.0 mi South 5.8 mph - N/A   Overcast